Miscellaneous Local Product
Issued by NWS Hastings, NE

Home | Current Version | Previous Version | Text Only | Print | Product List | Glossary Off
Versions: 1 2 3 4 5 6 7 8 9 10 11 12 13 14 15 16 17 18 19 20 21 22 23 24 25 26 27 28 29 30 31 32 33 34 35 36 37 38 39 40 41 42 43 44 45 46 47 48 49 50

000
AXUS43 KGID 300902
MISGRI

GID CWA HOURLY WEATHER ROUNDUP
NATIONAL WEATHER SERVICE HASTINGS NE
400 AM CDT TUE JUN 30 2015

NOTE: "FAIR" INDICATES FEW OR NO CLOUDS BELOW 12,000 FEET WITH NO
SIGNIFICANT WEATHER AND/OR OBSTRUCTIONS TO VISIBILITY.

...SOUTH CENTRAL NEBRASKA...

CITY           SKY/WX    TMP DP  RH WIND       PRES   REMARKS
GRAND ISLAND   CLEAR     64  60  87 S3        29.97F
HASTINGS       CLEAR     67  60  78 SW5       29.98F
KEARNEY        CLEAR     64  61  88 SE5       29.99F
ORD            CLEAR     59  57  93 CALM      29.96F
YORK           CLEAR     64  61  88 SW6       29.97F
AURORA         CLEAR     70  62  77 S7        29.97S
LEXINGTON      CLEAR     62  59  91 N3        30.00F
HOLDREGE       CLEAR     69  59  70 SW5       30.00S
HEBRON         CLEAR     65  62  89 CALM      29.97S

...NEBRASKA PANHANDLE...

CITY           SKY/WX    TMP DP  RH WIND       PRES   REMARKS
CHADRON        PTCLDY    59  58  96 CALM      30.01F
ALLIANCE       CLEAR     56  54  93 W7        30.07F
SCOTTSBLUFF    CLEAR     61  55  81 NE3       30.07F
SIDNEY         CLEAR     59  57  93 W7        30.11F

...WESTERN AND NORTH CENTRAL NEBRASKA...

CITY           SKY/WX    TMP DP  RH WIND       PRES   REMARKS
VALENTINE      CLEAR     61  59  93 W5        29.97F
AINSWORTH      CLEAR     67  58  73 SW7       29.97F
ONEILL         PTCLDY    67  63  87 SW6       29.95F
BROKEN BOW     CLEAR     64  58  80 CALM      29.99F
IMPERIAL       CLEAR     61  57  87 CALM      30.04F
NORTH PLATTE   CLEAR     62  59  90 NE3       30.01F
MCCOOK         CLEAR     64  58  80 W3        30.01F

...EASTERN NEBRASKA...

CITY           SKY/WX    TMP DP  RH WIND       PRES   REMARKS
NORFOLK        PTCLDY    64  61  90 CALM      29.92F
SO SIOUX CITY  PTCLDY    66  59  78 NW5       29.90S
TEKAMAH        MOCLDY    65  60  84 CALM      29.89F
COLUMBUS       CLEAR     64  57  77 CALM      29.95S
ALBION         CLEAR     64  58  81 CALM      29.96F
OMAHA EPPLEY   CLOUDY    68  64  87 SE3       29.90F
OFFUTT AFB     MOCLDY    64  63  97 NW5       29.89F FOG
MILLARD        MOCLDY    65  64  95 CALM      29.90F FOG
LINCOLN        PTCLDY    67  62  84 CALM      29.93F
NEBRASKA CITY  PTCLDY    67  60  77 W8        29.93R
BEATRICE       PTCLDY    65  64  94 CALM      29.94F
FALLS CITY     CLOUDY    66  63  90 CALM      29.91F

...NORTHERN KANSAS...

CITY           SKY/WX    TMP DP  RH WIND       PRES   REMARKS
GOODLAND       CLEAR     67  53  61 SW9       30.08F
HILL CITY      CLEAR     63  55  75 CALM      30.00F
NORTON         SUNNY     66  54  63 SW5       29.99F
PHILLIPSBURG   CLEAR     66  59  77 W5        29.98F
SMITH CENTER   PTCLDY    66  59  77 CALM      29.99S
HAYS           CLEAR     64  52  63 CALM      29.99F
RUSSELL        CLEAR     71  57  61 S10       29.97F
CONCORDIA      CLEAR     69  58  67 SW7       29.96F
SALINA         CLEAR     66  59  78 S3        29.97F
TOPEKA         CLEAR     68  65  90 CALM      29.93F



USA.gov is the U.S. government's official web portal to all federal, state and local government web resources and services.